User: anonymous   Login
Location: Unspecified
(0.0000°N, 0.0000°E)
Time: 19:27:13
(UTC+00:00)
Language:

CBERS-4 - Orbit

View from above orbital plane
View from above orbital plane
View from above satellite
View from above satellite

Ground track
Ground track

The orbit data is extracted from the following two-line orbital elements,

1 40336U 14079A   19341.44020018 -.00000002  00000-0  14844-4 0  9992
2 40336  98.5863  49.3488 0000800  56.0027 304.1234 14.35400168261997
Epoch (UTC): 07 December 2019 10:33:53
Eccentricity: 0.0000800
inclination: 98.5863°
perigee height: 773 km
apogee height: 774 km
right ascension of ascending node: 49.3488°
argument of perigee: 56.0027°
revolutions per day: 14.35400168
mean anomaly at epoch: 304.1234°
orbit number at epoch: 26199

The dashed part of the orbit path shows where the satellite is in the earth's shadow,  

DLR